Regional Weather Roundup
Issued by NWS Charleston, WV

Home | Current Version | Previous Version | Graphics & Text | Print | Product List | Glossary On
Versions: 1 2 3 4 5 6 7 8 9 10 11 12 13 14 15 16 17 18 19 20 21 22 23 24 25 26 27 28 29 30 31 32 33 34 35 36 37 38 39 40 41 42 43 44 45 46 47 48 49 50
000
ASUS41 KRLX 061710
RWRRLX
West Virginia Regional Weather Roundup
National Weather Service Charleston WV
100 PM EDT WED MAY 06 2015

Note: "fair" indicates few or no clouds below 12,000 feet with no
significant weather and/or obstructions to visibility.

WVZ003-061800-
Northern Panhandle of West Virginia

CITY           SKY/WX    TMP DP  RH WIND       PRES   REMARKS
WHEELING       SUNNY     79  58  48 VRB6      30.20F
$$

WVZ009-061800-
Northwest West Virginia

CITY           SKY/WX    TMP DP  RH WIND       PRES   REMARKS
PARKERSBURG      N/A     83  53  35 VRB5      30.22F
$$

WVZ006-061800-
Western West Virginia

CITY           SKY/WX    TMP DP  RH WIND       PRES   REMARKS
HUNTINGTON     MOSUNNY   81  55  40 VRB3      30.20F
$$

WVZ015-061800-
West Central West Virginia

CITY           SKY/WX    TMP DP  RH WIND       PRES   REMARKS
CHARLESTON     MOSUNNY   84  52  33 CALM      30.20F
$$

WVZ022-031-061800-
North Central West Virginia

CITY           SKY/WX    TMP DP  RH WIND       PRES   REMARKS
CLARKSBURG     MOSUNNY   82  56  40 VRB3      30.21F
MORGANTOWN     PTSUNNY   82  51  34 CALM      30.21F
$$

WVZ025-035-042-045-061800-
Southern West Virginia

CITY           SKY/WX    TMP DP  RH WIND       PRES   REMARKS
BECKLEY        MOSUNNY   78  47  33 N7        30.27F
LOGAN            N/A     81  52  36 CALM      30.20F
BLUEFIELD      CLOUDY    79  51  37 VRB5      30.28F
LEWISBURG      MOSUNNY   79  47  32 CALM      30.26F
$$

WVZ047-061800-
Northern Mountains of West Virginia

CITY           SKY/WX    TMP DP  RH WIND       PRES   REMARKS
ELKINS         MOSUNNY   79  51  37 N8        30.24F
$$

WVZ052-061800-
Eastern Panhandle of West Virginia

CITY           SKY/WX    TMP DP  RH WIND       PRES   REMARKS
MARTINSBURG    SUNNY     79  61  53 NE7       30.21F
PETERSBURG     MOSUNNY   83  49  30 CALM      30.19F
$$


USA.gov is the U.S. government's official web portal to all federal, state and local government web resources and services.